| time (UTC) | temp C | wind direction | speed KPH | gust KPH | rain 1hr cm | rain 24hr cm | rain mn cm | humidity % | barometer mb |
| 20260508070003 | 8 | 315 | 6.4 | 12.9 | 0.00 | 0.05 | 0.00 | 86 | 1016.4 |
| 20260508065003 | 8 | 320 | 4.8 | 11.3 | 0.00 | 0.05 | 0.00 | 86 | 1016.4 |
| 20260508064216 | 8 | 320 | 6.4 | 14.5 | 0.00 | 0.05 | 0.00 | 85 | 1016.4 |
| 20260508063008 | 8 | 318 | 6.4 | 11.3 | 0.00 | 0.05 | 0.00 | 87 | 1016.1 |
| 20260508062003 | 7 | 312 | 6.4 | 11.3 | 0.00 | 0.05 | 0.00 | 89 | 1016.0 |
| 20260508061003 | 7 | 315 | 6.4 | 11.3 | 0.00 | 0.05 | 0.00 | 90 | 1016.0 |
| 20260508060008 | 7 | 329 | 6.4 | 12.9 | 0.00 | 0.05 | 0.00 | 90 | 1016.0 |
| 20260508055008 | 7 | 331 | 4.8 | 11.3 | 0.00 | 0.05 | 0.00 | 89 | 1016.0 |
| 20260508054003 | 6 | 309 | 4.8 | 11.3 | 0.00 | 0.05 | 0.00 | 90 | 1015.8 |
| 20260508053008 | 6 | 307 | 3.2 | 6.4 | 0.00 | 0.05 | 0.00 | 90 | 1015.9 |
| 20260508052218 | 6 | 309 | 4.8 | 8.0 | 0.00 | 0.05 | 0.00 | 90 | 1016.0 |
| 20260508051008 | 6 | 326 | 4.8 | 9.7 | 0.00 | 0.05 | 0.00 | 89 | 1015.8 |
| 20260508050008 | 6 | 333 | 6.4 | 14.5 | 0.00 | 0.05 | 0.00 | 87 | 1015.7 |
| 20260508045004 | 6 | 323 | 6.4 | 11.3 | 0.00 | 0.05 | 0.00 | 85 | 1015.7 |
| 20260508044003 | 6 | 315 | 4.8 | 11.3 | 0.00 | 0.05 | 0.00 | 85 | 1015.5 |
| 20260508043003 | 7 | 322 | 4.8 | 9.7 | 0.00 | 0.05 | 0.00 | 85 | 1015.6 |
| 20260508042003 | 7 | 306 | 3.2 | 8.0 | 0.00 | 0.05 | 0.00 | 85 | 1015.7 |
| 20260508041217 | 7 | 320 | 4.8 | 9.7 | 0.00 | 0.05 | 0.00 | 84 | 1015.6 |
| 20260508040003 | 7 | 331 | 6.4 | 17.7 | 0.00 | 0.05 | 0.00 | 84 | 1015.6 |
| 20260508035008 | 7 | 321 | 4.8 | 12.9 | 0.00 | 0.05 | 0.00 | 85 | 1015.6 |
| 20260508034217 | 7 | 314 | 4.8 | 9.7 | 0.00 | 0.05 | 0.00 | 86 | 1015.7 |
| 20260508033003 | 7 | 301 | 3.2 | 9.7 | 0.00 | 0.05 | 0.00 | 88 | 1015.7 |
| 20260508032003 | 7 | 329 | 4.8 | 8.0 | 0.00 | 0.05 | 0.00 | 89 | 1015.6 |
| 20260508031003 | 7 | 320 | 4.8 | 9.7 | 0.00 | 0.05 | 0.00 | 89 | 1015.6 |
| 20260508030008 | 7 | 321 | 4.8 | 11.3 | 0.00 | 0.05 | 0.00 | 90 | 1015.6 |
| 20260508025003 | 7 | 326 | 6.4 | 14.5 | 0.00 | 0.05 | 0.00 | 90 | 1015.5 |
| 20260508024008 | 7 | 320 | 6.4 | 17.7 | 0.00 | 0.05 | 0.00 | 90 | 1015.6 |
| 20260508023003 | 7 | 319 | 4.8 | 11.3 | 0.00 | 0.05 | 0.00 | 91 | 1015.5 |
| 20260508022008 | 7 | 324 | 6.4 | 12.9 | 0.00 | 0.05 | 0.00 | 91 | 1015.5 |
| 20260508021223 | 7 | 317 | 4.8 | 11.3 | 0.00 | 0.05 | 0.00 | 92 | 1015.5 |
| 20260508020004 | 7 | 330 | 6.4 | 14.5 | 0.00 | 0.05 | 0.00 | 92 | 1015.3 |
| 20260508015003 | 7 | 332 | 4.8 | 12.9 | 0.00 | 0.05 | 0.00 | 92 | 1015.5 |
| 20260508014003 | 7 | 331 | 6.4 | 11.3 | 0.00 | 0.05 | 0.00 | 92 | 1015.2 |
| 20260508013003 | 7 | 316 | 4.8 | 8.0 | 0.00 | 0.05 | 0.00 | 92 | 1015.5 |
| 20260508012223 | 7 | 325 | 4.8 | 6.4 | 0.00 | 0.05 | 0.00 | 92 | 1015.6 |
| 20260508011003 | 7 | 324 | 4.8 | 6.4 | 0.00 | 0.05 | 0.00 | 91 | 1015.7 |
| 20260508010216 | 7 | 318 | 4.8 | 6.4 | 0.00 | 0.05 | 0.00 | 91 | 1015.7 |
| 20260508005003 | 7 | 322 | 4.8 | 9.7 | 0.00 | 0.05 | 0.00 | 90 | 1015.6 |
| 20260508004008 | 7 | 320 | 4.8 | 6.4 | 0.00 | 0.05 | 0.00 | 91 | 1015.7 |
| 20260508003003 | 7 | 321 | 4.8 | 6.4 | 0.00 | 0.05 | 0.00 | 91 | 1015.8 |
| 20260508002003 | 7 | 320 | 4.8 | 6.4 | 0.00 | 0.05 | 0.00 | 92 | 1015.8 |
| 20260508001218 | 7 | 322 | 4.8 | 6.4 | 0.00 | 0.05 | 0.00 | 92 | 1015.7 |
| 20260508000003 | 7 | 318 | 4.8 | 6.4 | 0.00 | 0.05 | 0.00 | 92 | 1015.8 |
| 20260507235222 | 7 | 319 | 4.8 | 6.4 | 0.00 | 0.05 | 0.00 | 91 | 1015.8 |
| 20260507234222 | 7 | 321 | 4.8 | 6.4 | 0.00 | 0.05 | 0.00 | 91 | 1015.7 |
| 20260507233003 | 7 | 322 | 4.8 | 6.4 | 0.00 | 0.05 | 0.00 | 91 | 1015.9 |
| 20260507232003 | 7 | 321 | 4.8 | 6.4 | 0.00 | 0.05 | 0.00 | 90 | 1015.8 |
| 20260507231003 | 7 | 320 | 4.8 | 6.4 | 0.00 | 0.05 | 0.00 | 90 | 1015.8 |
| 20260507230008 | 7 | 318 | 4.8 | 8.0 | 0.00 | 0.05 | 0.00 | 90 | 1015.8 |
| 20260507225008 | 8 | 319 | 4.8 | 8.0 | 0.00 | 0.05 | 0.05 | 89 | 1015.6 |
| 20260507224008 | 8 | 320 | 6.4 | 8.0 | 0.00 | 0.05 | 0.05 | 90 | 1015.9 |
| 20260507223221 | 8 | 321 | 4.8 | 8.0 | 0.00 | 0.05 | 0.05 | 90 | 1015.7 |
| 20260507222003 | 8 | 322 | 6.4 | 8.0 | 0.00 | 0.05 | 0.05 | 89 | 1015.7 |
| 20260507221003 | 8 | 321 | 4.8 | 8.0 | 0.00 | 0.05 | 0.05 | 89 | 1015.7 |
| 20260507220003 | 8 | 319 | 4.8 | 8.0 | 0.00 | 0.05 | 0.05 | 89 | 1015.7 |
| 20260507215003 | 8 | 322 | 6.4 | 9.7 | 0.00 | 0.05 | 0.05 | 89 | 1015.7 |
| 20260507214008 | 8 | 325 | 4.8 | 9.7 | 0.00 | 0.05 | 0.05 | 88 | 1015.7 |
| 20260507213008 | 8 | 324 | 4.8 | 8.0 | 0.00 | 0.05 | 0.05 | 88 | 1015.6 |
| 20260507212003 | 7 | 319 | 4.8 | 8.0 | 0.00 | 0.05 | 0.05 | 89 | 1015.7 |
| 20260507211003 | 7 | 320 | 4.8 | 8.0 | 0.00 | 0.05 | 0.05 | 87 | 1015.7 |
| 20260507210008 | 8 | 319 | 4.8 | 8.0 | 0.00 | 0.05 | 0.05 | 87 | 1015.5 |
| 20260507205008 | 7 | 320 | 4.8 | 8.0 | 0.00 | 0.05 | 0.05 | 87 | 1015.5 |
| 20260507204008 | 7 | 323 | 4.8 | 8.0 | 0.00 | 0.05 | 0.05 | 89 | 1015.2 |
| 20260507203008 | 7 | 321 | 4.8 | 8.0 | 0.00 | 0.05 | 0.05 | 89 | 1015.5 |
| 20260507202003 | 8 | 319 | 4.8 | 8.0 | 0.00 | 0.05 | 0.05 | 90 | 1015.3 |
| 20260507201008 | 8 | 322 | 4.8 | 8.0 | 0.00 | 0.05 | 0.05 | 90 | 1015.0 |
| 20260507200008 | 8 | 321 | 4.8 | 8.0 | 0.00 | 0.05 | 0.05 | 90 | 1015.2 |
| 20260507195008 | 8 | 320 | 6.4 | 8.0 | 0.00 | 0.05 | 0.05 | 90 | 1014.9 |
| 20260507194013 | 8 | 321 | 6.4 | 6.4 | 0.00 | 0.05 | 0.05 | 89 | 1015.0 |
| 20260507193008 | 8 | 320 | 6.4 | 8.0 | 0.00 | 0.05 | 0.05 | 88 | 1014.8 |
| 20260507192013 | 8 | 319 | 6.4 | 8.0 | 0.00 | 0.05 | 0.05 | 88 | 1014.9 |
| 20260507191003 | 8 | 317 | 4.8 | 8.0 | 0.00 | 0.05 | 0.05 | 87 | 1014.9 |
| 20260507190008 | 8 | 318 | 4.8 | 8.0 | 0.00 | 0.05 | 0.05 | 88 | 1014.8 |
| 20260507185008 | 8 | 317 | 4.8 | 8.0 | 0.00 | 0.05 | 0.05 | 88 | 1015.1 |
| 20260507184003 | 9 | 317 | 4.8 | 8.0 | 0.00 | 0.05 | 0.05 | 89 | 1015.0 |
| 20260507183008 | 8 | 318 | 4.8 | 8.0 | 0.00 | 0.05 | 0.05 | 91 | 1014.9 |
| 20260507182222 | 8 | 317 | 4.8 | 6.4 | 0.05 | 0.05 | 0.05 | 91 | 1014.8 |
| 20260507181003 | 8 | 318 | 4.8 | 6.4 | 0.05 | 0.05 | 0.05 | 91 | 1014.8 |
| 20260507180008 | 8 | 318 | 4.8 | 6.4 | 0.05 | 0.05 | 0.05 | 89 | 1014.6 |
| 20260507175003 | 8 | 316 | 6.4 | 8.0 | 0.05 | 0.05 | 0.05 | 88 | 1014.6 |
| 20260507174008 | 8 | 318 | 6.4 | 8.0 | 0.05 | 0.05 | 0.05 | 87 | 1014.6 |
| 20260507173008 | 9 | 317 | 4.8 | 8.0 | 0.05 | 0.05 | 0.05 | 84 | 1014.9 |
| 20260507172008 | 9 | 322 | 4.8 | 9.7 | 0.00 | 0.00 | 0.00 | 87 | 1015.0 |
| 20260507171008 | 8 | 319 | 6.4 | 11.3 | 0.00 | 0.00 | 0.00 | 90 | 1014.7 |
| 20260507170008 | 8 | 318 | 6.4 | 11.3 | 0.00 | 0.00 | 0.00 | 88 | 1014.8 |
| 20260507165008 | 8 | 327 | 8.0 | 12.9 | 0.00 | 0.00 | 0.00 | 86 | 1015.0 |
| 20260507164003 | 10 | 320 | 6.4 | 16.1 | 0.00 | 0.00 | 0.00 | 80 | 1015.0 |
| 20260507163013 | 10 | 324 | 6.4 | 14.5 | 0.00 | 0.00 | 0.00 | 75 | 1014.9 |
| 20260507162008 | 11 | 315 | 4.8 | 9.7 | 0.00 | 0.00 | 0.00 | 65 | 1014.6 |
| 20260507161008 | 12 | 315 | 6.4 | 12.9 | 0.00 | 0.00 | 0.00 | 61 | 1014.8 |
| 20260507160217 | 12 | 307 | 6.4 | 12.9 | 0.00 | 0.00 | 0.00 | 59 | 1014.6 |
| 20260507155003 | 12 | 307 | 6.4 | 11.3 | 0.00 | 0.00 | 0.00 | 62 | 1014.6 |
| 20260507154003 | 13 | 313 | 6.4 | 14.5 | 0.00 | 0.00 | 0.00 | 61 | 1014.4 |
| 20260507153008 | 13 | 313 | 4.8 | 11.3 | 0.00 | 0.00 | 0.00 | 58 | 1014.6 |
| 20260507152008 | 13 | 307 | 6.4 | 16.1 | 0.00 | 0.00 | 0.00 | 61 | 1014.6 |
| 20260507151008 | 13 | 303 | 6.4 | 14.5 | 0.00 | 0.00 | 0.00 | 57 | 1014.7 |
| 20260507150003 | 13 | 302 | 6.4 | 12.9 | 0.00 | 0.00 | 0.00 | 58 | 1014.7 |
| 20260507145008 | 13 | 302 | 6.4 | 14.5 | 0.00 | 0.00 | 0.00 | 55 | 1014.6 |
| 20260507144008 | 14 | 297 | 4.8 | 12.9 | 0.00 | 0.00 | 0.00 | 52 | 1014.8 |
| 20260507143004 | 14 | 302 | 6.4 | 12.9 | 0.00 | 0.00 | 0.00 | 54 | 1014.8 |
| 20260507142008 | 14 | 301 | 6.4 | 12.9 | 0.00 | 0.00 | 0.00 | 54 | 1014.9 |
| 20260507141004 | 15 | 305 | 6.4 | 16.1 | 0.00 | 0.00 | 0.00 | 50 | 1014.9 |
| 20260507140003 | 16 | 292 | 6.4 | 14.5 | 0.00 | 0.00 | 0.00 | 53 | 1015.1 |
| 20260507135003 | 15 | 292 | 6.4 | 12.9 | 0.00 | 0.00 | 0.00 | 52 | 1015.1 |
| 20260507134218 | 15 | 287 | 6.4 | 12.9 | 0.00 | 0.00 | 0.00 | 55 | 1015.2 |
| 20260507133003 | 14 | 290 | 6.4 | 14.5 | 0.00 | 0.00 | 0.00 | 57 | 1015.2 |
| 20260507132008 | 15 | 294 | 6.4 | 12.9 | 0.00 | 0.00 | 0.00 | 56 | 1015.1 |
| 20260507131008 | 15 | 292 | 6.4 | 12.9 | 0.00 | 0.00 | 0.00 | 55 | 1015.2 |
| 20260507130008 | 15 | 302 | 6.4 | 12.9 | 0.00 | 0.00 | 0.00 | 56 | 1015.2 |
| 20260507125008 | 15 | 301 | 6.4 | 16.1 | 0.00 | 0.00 | 0.00 | 59 | 1015.2 |
| 20260507124218 | 14 | 301 | 6.4 | 16.1 | 0.00 | 0.00 | 0.00 | 62 | 1015.3 |
| 20260507123003 | 13 | 295 | 6.4 | 14.5 | 0.00 | 0.00 | 0.00 | 61 | 1015.5 |
| 20260507122003 | 14 | 298 | 6.4 | 12.9 | 0.00 | 0.00 | 0.00 | 56 | 1015.3 |
| 20260507121009 | 13 | 299 | 6.4 | 14.5 | 0.00 | 0.00 | 0.00 | 58 | 1015.3 |
| 20260507120008 | 13 | 302 | 6.4 | 16.1 | 0.00 | 0.00 | 0.00 | 59 | 1015.5 |
| 20260507115003 | 12 | 300 | 6.4 | 12.9 | 0.00 | 0.00 | 0.00 | 61 | 1015.7 |
| 20260507114217 | 13 | 311 | 6.4 | 14.5 | 0.00 | 0.00 | 0.00 | 60 | 1015.7 |
| 20260507113004 | 12 | 304 | 6.4 | 12.9 | 0.00 | 0.00 | 0.00 | 63 | 1015.8 |
| 20260507112003 | 11 | 309 | 8.0 | 12.9 | 0.00 | 0.00 | 0.00 | 71 | 1015.8 |
| 20260507111003 | 11 | 310 | 8.0 | 14.5 | 0.00 | 0.00 | 0.00 | 73 | 1015.9 |
| 20260507110223 | 11 | 306 | 6.4 | 12.9 | 0.00 | 0.00 | 0.00 | 70 | 1015.8 |
| 20260507105008 | 11 | 311 | 8.0 | 12.9 | 0.00 | 0.00 | 0.00 | 72 | 1016.0 |
| 20260507104008 | 10 | 313 | 8.0 | 14.5 | 0.00 | 0.00 | 0.00 | 71 | 1016.2 |
| 20260507103008 | 11 | 315 | 8.0 | 12.9 | 0.00 | 0.00 | 0.00 | 74 | 1016.1 |
| 20260507102003 | 10 | 311 | 6.4 | 9.7 | 0.00 | 0.00 | 0.00 | 76 | 1016.1 |
| 20260507101008 | 10 | 309 | 4.8 | 8.0 | 0.00 | 0.00 | 0.00 | 74 | 1016.2 |
| 20260507100217 | 10 | 312 | 4.8 | 11.3 | 0.00 | 0.00 | 0.00 | 75 | 1016.2 |
| 20260507095008 | 9 | 310 | 4.8 | 12.9 | 0.00 | 0.00 | 0.00 | 76 | 1016.2 |
| 20260507094003 | 8 | 310 | 4.8 | 11.3 | 0.00 | 0.00 | 0.00 | 81 | 1016.0 |
| 20260507093223 | 8 | 310 | 4.8 | 9.7 | 0.00 | 0.00 | 0.00 | 81 | 1016.0 |
| 20260507092222 | 7 | 312 | 6.4 | 9.7 | 0.00 | 0.00 | 0.00 | 84 | 1015.9 |
| 20260507091008 | 7 | 315 | 6.4 | 11.3 | 0.00 | 0.00 | 0.00 | 87 | 1015.8 |
| 20260507090008 | 7 | 313 | 6.4 | 11.3 | 0.00 | 0.00 | 0.00 | 89 | 1016.1 |
| 20260507085008 | 6 | 314 | 6.4 | 11.3 | 0.00 | 0.00 | 0.00 | 90 | 1015.9 |
| 20260507084008 | 6 | 314 | 6.4 | 9.7 | 0.00 | 0.00 | 0.00 | 92 | 1015.9 |
| 20260507083003 | 6 | 313 | 6.4 | 11.3 | 0.00 | 0.00 | 0.00 | 93 | 1015.7 |
| 20260507082008 | 6 | 311 | 8.0 | 11.3 | 0.00 | 0.00 | 0.00 | 94 | 1015.8 |
| 20260507081008 | 5 | 312 | 6.4 | 11.3 | 0.00 | 0.00 | 0.00 | 95 | 1015.9 |
| 20260507080008 | 5 | 313 | 6.4 | 9.7 | 0.00 | 0.00 | 0.00 | 95 | 1015.9 |
| 20260507075008 | 5 | 311 | 6.4 | 11.3 | 0.00 | 0.00 | 0.00 | 95 | 1015.9 |
| 20260507074008 | 5 | 307 | 6.4 | 12.9 | 0.00 | 0.00 | 0.00 | 95 | 1015.7 |
| 20260507073008 | 5 | 316 | 6.4 | 12.9 | 0.00 | 0.00 | 0.00 | 96 | 1015.7 |
| 20260507072008 | 5 | 308 | 6.4 | 14.5 | 0.00 | 0.00 | 0.00 | 97 | 1015.7 |
| 20260507071003 | 5 | 324 | 8.0 | 19.3 | 0.00 | 0.00 | 0.00 | 97 | 1015.6 |